• In Latvia
  • List of Countries
  • For 7 days
  • Water Temperature
  • Satellite Maps
  • Weather Map
  • Weather Widgets
  • user-avatar
    Login

    Hourly Weather San Luis

    Today, 18 August, Friday

    Time Temperature Precipitation Wind Pressure Humidity
    00:00 +16°C° 0 mm 7 mps 694 mmHg 40%
    01:00 +16°C° 0 mm 8 mps 693 mmHg 40%
    02:00 +16°C° 0 mm 9 mps 693 mmHg 40%
    03:00 +16°C° 0 mm 9 mps 692 mmHg 40%
    04:00 +16°C° 0 mm 9 mps 692 mmHg 41%
    05:00 +16°C° 0 mm 9 mps 691 mmHg 41%
    06:00 +16°C° 0 mm 10 mps 691 mmHg 41%
    07:00 +16°C° 0 mm 10 mps 691 mmHg 40%
    08:00 +17°C° 0 mm 10 mps 691 mmHg 40%
    09:00 +19°C° 0 mm 10 mps 691 mmHg 34%
    10:00 +22°C° 0 mm 10 mps 691 mmHg 28%
    11:00 +24°C° 0 mm 10 mps 691 mmHg 22%
    12:00 +26°C° 0 mm 9 mps 691 mmHg 21%
    13:00 +26°C° 0 mm 8 mps 690 mmHg 20%
    14:00 +27°C° 0 mm 7 mps 690 mmHg 19%
    15:00 +26°C° 0 mm 6 mps 690 mmHg 20%
    16:00 +26°C° 0 mm 5 mps 690 mmHg 20%
    17:00 +26°C° 0 mm 4 mps 690 mmHg 21%
    18:00 +23°C° 0 mm 4 mps 690 mmHg 26%
    19:00 +21°C° 0 mm 5 mps 690 mmHg 31%
    20:00 +19°C° 0 mm 6 mps 691 mmHg 36%
    21:00 +17°C° 0 mm 7 mps 691 mmHg 41%
    22:00 +16°C° 0 mm 7 mps 692 mmHg 46%
    23:00 +16°C° 0 mm 7 mps 692 mmHg 52%

    Tomorrow, 19 August, Saturday

    Time Temperature Precipitation Wind Pressure Humidity
    00:00 +15°C° 0 mm 8 mps 693 mmHg 54%
    01:00 +13°C° 0 mm 9 mps 694 mmHg 55%
    02:00 +12°C° 0 mm 10 mps 694 mmHg 57%
    03:00 +11°C° 0 mm 9 mps 695 mmHg 56%
    04:00 +11°C° 0 mm 7 mps 695 mmHg 56%
    05:00 +10°C° 0 mm 6 mps 695 mmHg 55%
    06:00 +10°C° 0 mm 6 mps 696 mmHg 56%
    07:00 +9°C° 0 mm 7 mps 697 mmHg 57%
    08:00 +9°C° 0 mm 7 mps 697 mmHg 58%
    09:00 +11°C° 0 mm 6 mps 698 mmHg 50%
    10:00 +14°C° 0 mm 6 mps 698 mmHg 42%
    11:00 +16°C° 0 mm 6 mps 699 mmHg 34%
    12:00 +16°C° 0 mm 5 mps 699 mmHg 30%
    13:00 +18°C° 0 mm 4 mps 699 mmHg 26%
    14:00 +19°C° 0 mm 3 mps 698 mmHg 23%
    15:00 +19°C° 0 mm 4 mps 698 mmHg 23%
    16:00 +19°C° 0 mm 4 mps 698 mmHg 23%
    17:00 +17°C° 0 mm 5 mps 698 mmHg 23%
    18:00 +17°C° 0 mm 4 mps 699 mmHg 27%
    19:00 +14°C° 0 mm 4 mps 699 mmHg 31%
    20:00 +13°C° 0 mm 4 mps 700 mmHg 35%
    21:00 +12°C° 0 mm 4 mps 701 mmHg 37%
    22:00 +11°C° 0 mm 4 mps 702 mmHg 38%
    23:00 +11°C° 0 mm 4 mps 702 mmHg 40%

    Day after tomorrow, 20 August, Sunday

    Time Temperature Precipitation Wind Pressure Humidity
    00:00 +10°C° 0 mm 4 mps 703 mmHg 41%
    01:00 +10°C° 0 mm 3 mps 703 mmHg 42%
    02:00 +9°C° 0 mm 3 mps 704 mmHg 43%
    03:00 +8°C° 0 mm 4 mps 704 mmHg 42%
    04:00 +7°C° 0 mm 5 mps 705 mmHg 42%
    05:00 +7°C° 0 mm 6 mps 705 mmHg 42%
    06:00 +7°C° 0 mm 6 mps 706 mmHg 41%
    07:00 +7°C° 0 mm 6 mps 706 mmHg 40%
    08:00 +7°C° 0 mm 6 mps 707 mmHg 39%
    09:00 +9°C° 0 mm 6 mps 707 mmHg 35%
    10:00 +11°C° 0 mm 6 mps 708 mmHg 31%
    11:00 +15°C° 0 mm 6 mps 708 mmHg 28%
    12:00 +16°C° 0 mm 6 mps 707 mmHg 27%
    13:00 +17°C° 0 mm 6 mps 706 mmHg 26%
    14:00 +18°C° 0 mm 7 mps 705 mmHg 26%
    15:00 +18°C° 0 mm 7 mps 705 mmHg 26%
    16:00 +19°C° 0 mm 6 mps 704 mmHg 27%
    17:00 +19°C° 0 mm 6 mps 704 mmHg 28%
    18:00 +16°C° 0 mm 6 mps 704 mmHg 31%
    19:00 +15°C° 0 mm 5 mps 704 mmHg 35%
    20:00 +13°C° 0 mm 5 mps 704 mmHg 38%
    21:00 +13°C° 0 mm 6 mps 703 mmHg 37%
    22:00 +12°C° 0 mm 7 mps 703 mmHg 35%
    23:00 +12°C° 0 mm 8 mps 703 mmHg 34%

    21 August, Monday

    Time Temperature Precipitation Wind Pressure Humidity
    00:00 +12°C° 0 mm 9 mps 703 mmHg 33%
    01:00 +12°C° 0 mm 9 mps 702 mmHg 33%
    02:00 +12°C° 0 mm 9 mps 702 mmHg 32%
    03:00 +11°C° 0 mm 10 mps 702 mmHg 32%
    04:00 +11°C° 0 mm 10 mps 701 mmHg 32%
    05:00 +11°C° 0 mm 11 mps 701 mmHg 32%
    06:00 +11°C° 0 mm 11 mps 701 mmHg 31%
    07:00 +10°C° 0 mm 12 mps 701 mmHg 31%
    08:00 +12°C° 0 mm 12 mps 701 mmHg 31%
    09:00 +13°C° 0 mm 13 mps 701 mmHg 28%
    10:00 +15°C° 0 mm 13 mps 701 mmHg 26%
    11:00 +18°C° 0 mm 13 mps 701 mmHg 23%
    12:00 +19°C° 0 mm 13 mps 701 mmHg 22%
    13:00 +20°C° 0 mm 13 mps 700 mmHg 21%
    14:00 +22°C° 0 mm 12 mps 699 mmHg 20%
    15:00 +22°C° 0 mm 12 mps 698 mmHg 21%
    16:00 +21°C° 0 mm 12 mps 698 mmHg 21%
    17:00 +19°C° 0 mm 11 mps 697 mmHg 22%
    18:00 +18°C° 0 mm 11 mps 697 mmHg 23%
    19:00 +17°C° 0 mm 12 mps 697 mmHg 25%
    20:00 +15°C° 0 mm 12 mps 696 mmHg 26%
    21:00 +15°C° 0 mm 12 mps 696 mmHg 25%
    22:00 +15°C° 0 mm 13 mps 696 mmHg 24%
    23:00 +15°C° 0 mm 14 mps 696 mmHg 23%

    22 August, Tuesday

    Time Temperature Precipitation Wind Pressure Humidity
    00:00 +15°C° 0 mm 14 mps 695 mmHg 22%
    01:00 +15°C° 0 mm 14 mps 694 mmHg 21%
    02:00 +15°C° 0 mm 14 mps 693 mmHg 20%
    03:00 +14°C° 0 mm 14 mps 693 mmHg 21%
    04:00 +14°C° 0 mm 14 mps 692 mmHg 21%
    05:00 +14°C° 0 mm 13 mps 691 mmHg 22%
    06:00 +14°C° 0 mm 13 mps 691 mmHg 23%
    07:00 +14°C° 0 mm 13 mps 691 mmHg 23%
    08:00 +14°C° 0 mm 12 mps 691 mmHg 24%
    09:00 +18°C° 0 mm 13 mps 691 mmHg 21%
    10:00 +20°C° 0 mm 13 mps 691 mmHg 18%
    11:00 +23°C° 0 mm 13 mps 691 mmHg 16%
    12:00 +24°C° 0 mm 13 mps 690 mmHg 15%
    13:00 +26°C° 0 mm 13 mps 689 mmHg 14%
    14:00 +27°C° 0 mm 13 mps 688 mmHg 13%
    15:00 +26°C° 0 mm 12 mps 687 mmHg 14%
    16:00 +26°C° 0 mm 11 mps 687 mmHg 14%
    17:00 +24°C° 0 mm 11 mps 686 mmHg 15%
    18:00 +23°C° 0 mm 10 mps 686 mmHg 16%
    19:00 +22°C° 0 mm 10 mps 686 mmHg 17%
    20:00 +21°C° 0 mm 10 mps 686 mmHg 18%
    21:00 +21°C° 0 mm 10 mps 687 mmHg 18%
    22:00 +21°C° 0 mm 10 mps 687 mmHg 19%
    23:00 +21°C° 0 mm 10 mps 687 mmHg 19%

    23 August, Wednesday

    Time Temperature Precipitation Wind Pressure Humidity
    00:00 +19°C° 0 mm 9 mps 687 mmHg 20%
    01:00 +20°C° 0 mm 8 mps 687 mmHg 21%
    02:00 +18°C° 0 mm 7 mps 688 mmHg 22%
    03:00 +16°C° 0 mm 7 mps 689 mmHg 27%
    04:00 +12°C° 0 mm 8 mps 690 mmHg 31%
    05:00 +10°C° 0 mm 9 mps 691 mmHg 36%
    06:00 +8°C° 0 mm 10 mps 692 mmHg 38%
    07:00 +7°C° 0 mm 10 mps 694 mmHg 40%
    08:00 +6°C° 0 mm 11 mps 696 mmHg 41%
    09:00 +7°C° 0 mm 11 mps 697 mmHg 37%
    10:00 +9°C° 0 mm 10 mps 698 mmHg 32%
    11:00 +11°C° 0 mm 10 mps 699 mmHg 27%
    12:00 +12°C° 0 mm 10 mps 698 mmHg 25%
    13:00 +13°C° 0 mm 9 mps 698 mmHg 24%
    14:00 +13°C° 0 mm 9 mps 698 mmHg 22%
    15:00 +13°C° 0 mm 9 mps 698 mmHg 23%
    16:00 +12°C° 0 mm 10 mps 698 mmHg 23%
    17:00 +12°C° 0 mm 10 mps 698 mmHg 24%
    18:00 +11°C° 0 mm 10 mps 699 mmHg 26%
    19:00 +10°C° 0 mm 9 mps 700 mmHg 28%
    20:00 +9°C° 0 mm 8 mps 700 mmHg 29%
    21:00 +8°C° 0 mm 7 mps 700 mmHg 30%
    22:00 +8°C° 0 mm 7 mps 701 mmHg 31%
    23:00 +8°C° 0 mm 6 mps 701 mmHg 32%
    Show more